Time,TemperatureF,DewpointF,PressureIn,WindDirection,WindDirectionDegrees,WindSpeedMPH,WindSpeedGustMPH,Humidity,HourlyPrecipIn,Conditions,Clouds,dailyrainin,SolarRadiationWatts/m^2,SoftwareType,DateUTC
2013-07-05 00:01:00,72.0,58.0,-100.00,NNW,342,4.0,10.0,62,0.00,,,0.00,0.000000,,2013-07-05 05:01:00,
2013-07-05 00:33:00,71.0,59.0,-100.00,NNW,343,3.0,7.0,66,0.00,,,0.00,0.000000,,2013-07-05 05:33:00,
2013-07-05 00:43:00,71.0,59.0,-100.00,NNW,343,3.0,7.0,66,0.00,,,0.00,0.000000,,2013-07-05 05:43:00,
2013-07-05 00:52:00,71.0,59.0,-100.00,NNW,343,3.0,7.0,66,0.00,,,0.00,0.000000,,2013-07-05 05:52:00,
2013-07-05 01:02:00,71.0,59.0,-100.00,NNW,343,3.0,7.0,66,0.00,,,0.00,0.000000,,2013-07-05 06:02:00,
2013-07-05 01:34:00,70.0,58.0,-100.00,North,352,5.0,10.0,66,0.00,,,0.00,0.000000,,2013-07-05 06:34:00,
2013-07-05 01:44:00,70.0,58.0,-100.00,North,352,5.0,10.0,66,0.00,,,0.00,0.000000,,2013-07-05 06:44:00,
2013-07-05 01:53:00,70.0,58.0,-100.00,North,352,5.0,10.0,66,0.00,,,0.00,0.000000,,2013-07-05 06:53:00,
2013-07-05 02:02:00,70.0,58.0,-100.00,North,352,5.0,10.0,66,0.00,,,0.00,0.000000,,2013-07-05 07:02:00,
2013-07-05 02:34:00,69.0,58.0,-100.00,North,349,4.0,9.0,69,0.00,,,0.00,0.000000,,2013-07-05 07:34:00,
2013-07-05 02:43:00,69.0,58.0,-100.00,North,349,4.0,9.0,69,0.00,,,0.00,0.000000,,2013-07-05 07:43:00,
2013-07-05 02:53:00,69.0,58.0,-100.00,North,349,4.0,9.0,69,0.00,,,0.00,0.000000,,2013-07-05 07:53:00,
2013-07-05 03:02:00,69.0,58.0,-100.00,North,349,4.0,9.0,69,0.00,,,0.00,0.000000,,2013-07-05 08:02:00,
2013-07-05 03:05:00,67.0,58.0,-100.00,NNW,345,2.0,8.0,74,0.00,,,0.00,0.000000,,2013-07-05 08:05:00,
2013-07-05 03:33:00,67.0,58.0,-100.00,NNW,345,2.0,8.0,74,0.00,,,0.00,0.000000,,2013-07-05 08:33:00,
2013-07-05 03:44:00,67.0,58.0,-100.00,NNW,345,2.0,8.0,74,0.00,,,0.00,0.000000,,2013-07-05 08:44:00,
2013-07-05 03:57:00,67.0,58.0,-100.00,NNW,345,2.0,8.0,74,0.00,,,0.00,0.000000,,2013-07-05 08:57:00,
2013-07-05 04:05:00,66.0,59.0,-100.00,NW,325,3.0,6.0,78,0.00,,,0.00,0.000000,,2013-07-05 09:05:00,
2013-07-05 04:37:00,66.0,59.0,-100.00,NW,325,3.0,6.0,78,0.00,,,0.00,0.000000,,2013-07-05 09:37:00,
2013-07-05 04:48:00,66.0,59.0,-100.00,NW,325,3.0,6.0,78,0.00,,,0.00,0.000000,,2013-07-05 09:48:00,
2013-07-05 05:38:00,66.0,59.0,-100.00,North,354,1.0,5.0,77,0.00,,,0.00,0.000000,,2013-07-05 10:38:00,
2013-07-05 05:47:00,66.0,59.0,-100.00,North,354,1.0,5.0,77,0.00,,,0.00,0.000000,,2013-07-05 10:47:00,
2013-07-05 05:57:00,66.0,59.0,-100.00,North,354,1.0,5.0,77,0.00,,,0.00,0.000000,,2013-07-05 10:57:00,
2013-07-05 06:05:00,62.0,59.0,-100.00,NW,307,0.0,3.0,91,0.00,,,0.00,7.000000,,2013-07-05 11:05:00,
2013-07-05 06:38:00,62.0,59.0,-100.00,NW,307,0.0,3.0,91,0.00,,,0.00,7.000000,,2013-07-05 11:38:00,
2013-07-05 06:50:00,62.0,59.0,-100.00,NW,307,0.0,3.0,91,0.00,,,0.00,7.000000,,2013-07-05 11:50:00,
2013-07-05 07:00:00,62.0,59.0,-100.00,NW,307,0.0,3.0,91,0.00,,,0.00,7.000000,,2013-07-05 12:00:00,
2013-07-05 07:05:00,70.0,60.0,-100.00,NW,317,2.0,5.0,71,0.00,,,-99.99,85.000000,,2013-07-05 12:05:00,
2013-07-05 07:38:00,70.0,60.0,-100.00,NW,317,2.0,5.0,71,0.00,,,-99.99,85.000000,,2013-07-05 12:38:00,
2013-07-05 07:50:00,70.0,60.0,-100.00,NW,317,2.0,5.0,71,0.00,,,-99.99,85.000000,,2013-07-05 12:50:00,
2013-07-05 08:00:00,70.0,60.0,-100.00,NW,317,2.0,5.0,71,0.00,,,-99.99,85.000000,,2013-07-05 13:00:00,
2013-07-05 08:05:00,74.0,60.0,-100.00,North,351,5.0,10.0,61,0.00,,,0.00,230.000000,,2013-07-05 13:05:00,
2013-07-05 08:39:00,74.0,60.0,-100.00,North,351,5.0,10.0,61,0.00,,,0.00,230.000000,,2013-07-05 13:39:00,
2013-07-05 08:49:00,74.0,60.0,-100.00,North,351,5.0,10.0,61,0.00,,,0.00,230.000000,,2013-07-05 13:49:00,
2013-07-05 08:58:00,74.0,60.0,-100.00,North,351,5.0,10.0,61,0.00,,,0.00,230.000000,,2013-07-05 13:58:00,
2013-07-05 09:05:00,77.0,60.0,-100.00,North,1,6.0,13.0,55,0.00,,,0.00,402.000000,,2013-07-05 14:05:00,
2013-07-05 09:39:00,77.0,60.0,-100.00,North,1,6.0,13.0,55,0.00,,,0.00,402.000000,,2013-07-05 14:39:00,
2013-07-05 09:47:00,77.0,60.0,-100.00,North,1,6.0,13.0,55,0.00,,,0.00,402.000000,,2013-07-05 14:47:00,
2013-07-05 10:34:00,81.0,60.0,-100.00,North,354,6.0,13.0,49,0.00,,,0.00,570.000000,,2013-07-05 15:34:00,
2013-07-05 10:43:00,81.0,60.0,-100.00,North,354,6.0,13.0,49,0.00,,,0.00,570.000000,,2013-07-05 15:43:00,
2013-07-05 11:33:00,83.0,60.0,-100.00,North,359,6.0,14.0,46,0.00,,,0.00,713.000000,,2013-07-05 16:33:00,
2013-07-05 11:44:00,83.0,60.0,-100.00,North,359,6.0,14.0,46,0.00,,,0.00,713.000000,,2013-07-05 16:44:00,
2013-07-05 11:53:00,83.0,60.0,-100.00,North,359,6.0,14.0,46,0.00,,,0.00,713.000000,,2013-07-05 16:53:00,
2013-07-05 12:02:00,83.0,60.0,-100.00,North,359,6.0,14.0,46,0.00,,,0.00,713.000000,,2013-07-05 17:02:00,
2013-07-05 12:33:00,84.0,58.0,-100.00,North,4,8.0,15.0,42,0.00,,,0.00,812.000000,,2013-07-05 17:33:00,
2013-07-05 12:43:00,84.0,58.0,-100.00,North,4,8.0,15.0,42,0.00,,,0.00,812.000000,,2013-07-05 17:43:00,
2013-07-05 12:53:00,84.0,58.0,-100.00,North,4,8.0,15.0,42,0.00,,,0.00,812.000000,,2013-07-05 17:53:00,
2013-07-05 13:01:00,84.0,58.0,-100.00,North,4,8.0,15.0,42,0.00,,,0.00,812.000000,,2013-07-05 18:01:00,
2013-07-05 13:33:00,86.0,60.0,-100.00,NNE,13,6.0,17.0,41,0.00,,,0.00,880.000000,,2013-07-05 18:33:00,
2013-07-05 13:43:00,86.0,60.0,-100.00,NNE,13,6.0,17.0,41,0.00,,,0.00,880.000000,,2013-07-05 18:43:00,
2013-07-05 13:53:00,86.0,60.0,-100.00,NNE,13,6.0,17.0,41,0.00,,,0.00,880.000000,,2013-07-05 18:53:00,
2013-07-05 14:01:00,86.0,60.0,-100.00,NNE,13,6.0,17.0,41,0.00,,,0.00,880.000000,,2013-07-05 19:01:00,
2013-07-05 14:34:00,87.0,60.0,-100.00,NNW,347,9.0,16.0,40,0.00,,,0.00,881.000000,,2013-07-05 19:34:00,
2013-07-05 14:43:00,87.0,60.0,-100.00,NNW,347,9.0,16.0,40,0.00,,,0.00,881.000000,,2013-07-05 19:43:00,
2013-07-05 14:53:00,87.0,60.0,-100.00,NNW,347,9.0,16.0,40,0.00,,,0.00,881.000000,,2013-07-05 19:53:00,
2013-07-05 15:02:00,87.0,60.0,-100.00,NNW,347,9.0,16.0,40,0.00,,,0.00,881.000000,,2013-07-05 20:02:00,
2013-07-05 15:33:00,87.0,60.0,-100.00,North,350,8.0,17.0,40,0.00,,,0.00,833.000000,,2013-07-05 20:33:00,
2013-07-05 15:43:00,87.0,60.0,-100.00,North,350,8.0,17.0,40,0.00,,,0.00,833.000000,,2013-07-05 20:43:00,
2013-07-05 15:53:00,87.0,60.0,-100.00,North,350,8.0,17.0,40,0.00,,,0.00,833.000000,,2013-07-05 20:53:00,
2013-07-05 16:01:00,87.0,60.0,-100.00,North,350,8.0,17.0,40,0.00,,,0.00,833.000000,,2013-07-05 21:01:00,
2013-07-05 16:34:00,87.0,60.0,-100.00,North,350,9.0,17.0,40,0.00,,,0.00,700.000000,,2013-07-05 21:34:00,
2013-07-05 16:43:00,87.0,60.0,-100.00,North,350,9.0,17.0,40,0.00,,,0.00,700.000000,,2013-07-05 21:43:00,
2013-07-05 16:53:00,87.0,60.0,-100.00,North,350,9.0,17.0,40,0.00,,,0.00,700.000000,,2013-07-05 21:53:00,
2013-07-05 17:02:00,87.0,60.0,-100.00,North,350,9.0,17.0,40,0.00,,,0.00,700.000000,,2013-07-05 22:02:00,
2013-07-05 17:34:00,87.0,60.0,-100.00,North,8,8.0,21.0,41,0.00,,,0.00,549.000000,,2013-07-05 22:34:00,
2013-07-05 17:43:00,87.0,60.0,-100.00,North,8,8.0,21.0,41,0.00,,,0.00,549.000000,,2013-07-05 22:43:00,
2013-07-05 17:53:00,87.0,60.0,-100.00,North,8,8.0,21.0,41,0.00,,,0.00,549.000000,,2013-07-05 22:53:00,
2013-07-05 18:02:00,87.0,60.0,-100.00,North,8,8.0,21.0,41,0.00,,,0.00,549.000000,,2013-07-05 23:02:00,
2013-07-05 18:32:00,84.0,60.0,-100.00,North,357,7.0,16.0,44,0.00,,,0.00,382.000000,,2013-07-05 23:32:00,
2013-07-05 18:43:00,84.0,60.0,-100.00,North,357,7.0,16.0,44,0.00,,,0.00,382.000000,,2013-07-05 23:43:00,
2013-07-05 18:53:00,84.0,60.0,-100.00,North,357,7.0,16.0,44,0.00,,,0.00,382.000000,,2013-07-05 23:53:00,
2013-07-05 19:01:00,84.0,60.0,-100.00,North,357,7.0,16.0,44,0.00,,,0.00,382.000000,,2013-07-06 00:01:00,
2013-07-05 19:33:00,82.0,60.0,-100.00,NNW,348,6.0,13.0,47,0.00,,,0.00,177.000000,,2013-07-06 00:33:00,
2013-07-05 19:43:00,82.0,60.0,-100.00,NNW,348,6.0,13.0,47,0.00,,,0.00,177.000000,,2013-07-06 00:43:00,
2013-07-05 19:53:00,82.0,60.0,-100.00,NNW,348,6.0,13.0,47,0.00,,,0.00,177.000000,,2013-07-06 00:53:00,
2013-07-05 20:02:00,82.0,60.0,-100.00,NNW,348,6.0,13.0,47,0.00,,,0.00,177.000000,,2013-07-06 01:02:00,
2013-07-05 20:33:00,80.0,60.0,-100.00,NNW,337,5.0,13.0,50,0.00,,,0.00,58.000000,,2013-07-06 01:33:00,
2013-07-05 20:43:00,80.0,60.0,-100.00,NNW,337,5.0,13.0,50,0.00,,,0.00,58.000000,,2013-07-06 01:43:00,
2013-07-05 20:53:00,80.0,60.0,-100.00,NNW,337,5.0,13.0,50,0.00,,,0.00,58.000000,,2013-07-06 01:53:00,
2013-07-05 21:02:00,80.0,60.0,-100.00,NNW,337,5.0,13.0,50,0.00,,,0.00,58.000000,,2013-07-06 02:02:00,
2013-07-05 21:34:00,79.0,59.0,-100.00,NNW,339,5.0,13.0,51,0.00,,,0.00,21.000000,,2013-07-06 02:34:00,
2013-07-05 21:43:00,79.0,59.0,-100.00,NNW,339,5.0,13.0,51,0.00,,,0.00,21.000000,,2013-07-06 02:43:00,
2013-07-05 21:53:00,79.0,59.0,-100.00,NNW,339,5.0,13.0,51,0.00,,,0.00,21.000000,,2013-07-06 02:53:00,
2013-07-05 22:02:00,79.0,59.0,-100.00,NNW,339,5.0,13.0,51,0.00,,,0.00,21.000000,,2013-07-06 03:02:00,
2013-07-05 22:34:00,77.0,59.0,-100.00,NNW,341,7.0,13.0,54,0.00,,,0.00,0.000000,,2013-07-06 03:34:00,
2013-07-05 22:43:00,77.0,59.0,-100.00,NNW,341,7.0,13.0,54,0.00,,,0.00,0.000000,,2013-07-06 03:43:00,
2013-07-05 22:53:00,77.0,59.0,-100.00,NNW,341,7.0,13.0,54,0.00,,,0.00,0.000000,,2013-07-06 03:53:00,
2013-07-05 23:02:00,77.0,59.0,-100.00,NNW,341,7.0,13.0,54,0.00,,,0.00,0.000000,,2013-07-06 04:02:00,
2013-07-05 23:33:00,76.0,60.0,-100.00,North,355,6.0,13.0,58,0.00,,,0.00,0.000000,,2013-07-06 04:33:00,
2013-07-05 23:43:00,76.0,60.0,-100.00,North,355,6.0,13.0,58,0.00,,,0.00,0.000000,,2013-07-06 04:43:00,
2013-07-05 23:53:00,76.0,60.0,-100.00,North,355,6.0,13.0,58,0.00,,,0.00,0.000000,,2013-07-06 04:53:00,